This demonstration page uses our WeatherBlox Daily Observations layout. Learn more.

Left ArrowRight Arrow

41.86663, -103.66717

Hourly Observations for August 8, 2018

Temp ( °F °C ) Dew Point ( °F °C ) Humidity (%) Winds ( mph kmh ) Pressure ( in mb ) Visibility ( mi km ) Precip ( " mm )
12:53 am 00:53 Clear 62 16.7 59 15 90 90 WSW 6 9 29.98 1015 10 16 0.00 0.00
1:53 am 01:53 Clear 60 15.6 60 15.6 100 100 NNE 3 6 29.97 1015 10 16 0.00 0.00
2:53 am 02:53 Clear 58 14.4 58 14.4 100 100 NW 3 6 29.97 1015 10 16 0.00 0.00
3:53 am 03:53 Partly Cloudy 58 14.4 58 14.4 100 100 Calm 29.97 1015 10 16 0.00 0.00
4:53 am 04:53 Partly Cloudy 61 16.1 57 13.9 87 87 NW 7 11 29.96 1015 10 16 0.00 0.03
5:53 am 05:53 Clear 58 14.4 57 13.9 97 97 N 9 15 29.98 1015 10 16 0.00 0.00
6:53 am 06:53 Sunny 60 15.6 58 14.4 93 93 WNW 8 13 30.00 1016 10 16 0.00 0.00
7:53 am 07:53 Sunny 64 17.8 58 14.4 81 81 NW 7 11 30.02 1017 10 16 0.00 0.00
8:53 am 08:53 Sunny 70 21.1 59 15 68 68 NW 9 15 30.04 1017 10 16 0.00 0.00
9:53 am 09:53 Sunny 75 23.9 61 16.1 62 62 WNW 8 13 30.03 1017 10 16 0.00 0.00
10:53 am 10:53 Sunny 79 26.1 65 18.3 62 62 W 6 9 30.02 1017 10 16 0.00 0.00
11:53 am 11:53 Sunny 84 28.9 67 19.4 57 57 NW 8 13 30.01 1016 10 16 0.00 0.00
12:53 pm 12:53 Sunny 86 30 63 17.2 46 46 Calm 30.00 1016 10 16 0.00 0.00
1:53 pm 13:53 Cloudy 86 30 58 14.4 39 39 N 6 9 29.99 1016 10 16 0.00 0.00
2:53 pm 14:53 Sunny 85 29.4 58 14.4 40 40 SSW 12 19 29.99 1016 10 16 0.00 0.00
3:53 pm 15:53 Sunny 87 30.6 54 12.2 32 32 SSW 9 15 29.97 1015 10 16 0.00 0.00
4:53 pm 16:53 Mostly Cloudy 84 28.9 57 13.9 40 40 SSW 8 13 29.97 1015 10 16 0.00 0.00
5:53 pm 17:53 Sunny 86 30 54 12.2 33 33 SSW 5 7 29.96 1014 10 16 0.00 0.00
6:53 pm 18:53 Sunny 84 28.9 62 16.7 48 48 E 6 9 29.96 1015 10 16 0.00 0.00
7:53 pm 19:53 Sunny 76 24.4 64 17.8 67 67 E 5 7 29.99 1016 10 16 0.00 0.00
8:53 pm 20:53 Clear 70 21.1 61 16.1 73 73 E 7 11 30.01 1016 10 16 0.00 0.00
9:53 pm 21:53 Clear 68 20 61 16.1 78 78 E 7 11 30.01 1016 10 16 0.00 0.00
10:53 pm 22:53 Clear 67 19.4 59 15 76 76 Calm 30.01 1016 10 16 0.00 0.00
11:53 pm 23:53 Clear 65 18.3 58 14.4 78 78 E 3 6 30.01 1016 10 16 0.00 0.00

Powered by AerisWeather